FW2897 Weather Reports


Display with metric or nautical units.
time (UTC)temp
F
wind
direction
speed
MPH
gust
MPH
rain 1hr
in
rain 24hr
in
rain mn
in
humidity
%
barometer
mb
20260906175618 80 165 1.0 5.0 0.00 0.00 0.00 58 1014.7
20260906174823 79 137 1.0 3.0 0.00 0.00 0.00 60 1014.7
20260906174321 78 218 1.0 3.0 0.00 0.00 0.00 59 1014.8
20260906174015 78 291 0.0 3.0 0.00 0.00 0.00 61 1014.9
20260906173250 78 309 0.0 3.0 0.00 0.00 0.00 61 1014.9
20260906172722 79 268 0.0 5.0 0.00 0.00 0.00 61 1014.8
20260906172218 80 311 1.0 5.0 0.00 0.00 0.00 61 1014.8
20260906171718 79 284 1.0 7.0 0.00 0.00 0.00 62 1014.8
20260906171213 79 287 2.0 7.0 0.00 0.00 0.00 59 1014.9
20260906170712 79 304 1.0 6.0 0.00 0.00 0.00 60 1015.0
20260906170412 79 281 1.0 7.0 0.00 0.00 0.00 62 1014.9
20260906165641 78 103 1.0 7.0 0.00 0.00 0.00 63 1014.9
20260906165134 78 339 1.0 5.0 0.00 0.00 0.00 62 1014.8
20260906164646 79 205 1.0 2.0 0.00 0.00 0.00 61 1014.6
20260906164111 79 266 1.0 5.0 0.00 0.00 0.00 62 1014.7
20260906163611 79 91 1.0 5.0 0.00 0.00 0.00 62 1014.7
20260906163314 79 321 1.0 4.0 0.00 0.00 0.00 64 1014.8
20260906162547 78 222 1.0 6.0 0.00 0.00 0.00 64 1014.8
20260906162037 77 297 1.0 6.0 0.00 0.00 0.00 64 1014.8
20260906161458 78 346 1.0 4.0 0.00 0.00 0.00 63 1014.9
20260906160931 78 293 1.0 4.0 0.00 0.00 0.00 63 1014.9
20260906160652 78 278 1.0 5.0 0.00 0.00 0.00 65 1014.9
20260906155911 77 315 1.0 5.0 0.00 0.00 0.00 64 1014.9
20260906155410 77 286 1.0 3.0 0.00 0.00 0.00 65 1014.8
20260906154910 77 192 1.0 6.0 0.00 0.00 0.00 64 1014.9
20260906154358 77 262 1.0 6.0 0.00 0.00 0.00 64 1014.9
20260906154120 78 348 1.0 4.0 0.00 0.00 0.00 64 1014.8
20260906153342 78 238 1.0 4.0 0.00 0.00 0.00 65 1014.8
20260906153109 78 147 1.0 5.0 0.00 0.00 0.00 65 1014.8
20260906152339 78 96 1.0 5.0 0.00 0.00 0.00 64 1014.9
20260906151841 77 142 0.0 4.0 0.00 0.00 0.00 63 1014.9
20260906151321 77 246 1.0 3.0 0.00 0.00 0.00 64 1014.9
20260906150753 77 119 1.0 5.0 0.00 0.00 0.00 64 1015.0
20260906150307 78 312 1.0 5.0 0.00 0.00 0.00 63 1015.0
20260906145732 77 245 1.0 3.0 0.00 0.00 0.00 65 1014.9
20260906145232 76 120 1.0 3.0 0.00 0.00 0.00 66 1015.0
20260906144709 76 225 2.0 6.0 0.00 0.00 0.00 66 1014.9
20260906144208 76 120 2.0 6.0 0.00 0.00 0.00 64 1014.8
20260906143707 76 236 1.0 4.0 0.00 0.00 0.00 67 1014.7
20260906143205 76 122 1.0 4.0 0.00 0.00 0.00 65 1014.8
20260906142640 76 288 1.0 6.0 0.00 0.00 0.00 68 1014.9
20260906142114 75 250 1.0 6.0 0.00 0.00 0.00 67 1014.9
20260906141549 75 94 1.0 6.0 0.00 0.00 0.00 68 1014.8
20260906141246 75 20 1.0 6.0 0.00 0.00 0.00 67 1014.8
20260906140510 75 340 1.0 6.0 0.00 0.00 0.00 67 1014.8
20260906140148 75 217 1.0 4.0 0.00 0.00 0.00 69 1014.8
20260906135401 75 315 1.0 4.0 0.00 0.00 0.00 68 1014.7
20260906134901 75 3 1.0 3.0 0.00 0.00 0.00 68 1014.8
20260906134336 75 261 1.0 3.0 0.00 0.00 0.00 70 1014.6
20260906134031 75 53 0.0 4.0 0.00 0.00 0.00 68 1014.6
20260906133510 75 250 0.0 4.0 0.00 0.00 0.00 69 1014.6
20260906132719 74 145 0.0 2.0 0.00 0.00 0.00 69 1014.6
20260906132151 74 169 0.0 3.0 0.00 0.00 0.00 71 1014.6
20260906132102 74 231 0.0 3.0 0.00 0.00 0.00 70 1014.6
20260906131059 74 319 0.0 5.0 0.00 0.00 0.00 70 1014.6
20260906130533 74 282 0.0 5.0 0.00 0.00 0.00 71 1014.6
20260906130028 74 96 0.0 3.0 0.00 0.00 0.00 71 1014.6
20260906125528 73 213 0.0 3.0 0.00 0.00 0.00 71 1014.6
20260906124959 72 230 0.0 3.0 0.00 0.00 0.00 73 1014.5
20260906124456 72 245 0.0 3.0 0.00 0.00 0.00 74 1014.5
20260906123933 71 335 0.0 4.0 0.00 0.00 0.00 74 1014.4
20260906123414 71 288 0.0 4.0 0.00 0.00 0.00 75 1014.5
20260906123140 71 42 0.0 4.0 0.00 0.00 0.00 75 1014.5
20260906122348 70 349 0.0 4.0 0.00 0.00 0.00 75 1014.3
20260906122334 70 349 0.0 4.0 0.00 0.00 0.00 76 1014.4
20260906121543 69 219 1.0 4.0 0.00 0.00 0.00 76 1014.4
20260906120755 69 297 1.0 4.0 0.00 0.00 0.00 76 1014.2
20260906120449 69 275 0.0 3.0 0.00 0.00 0.00 77 1014.1
20260906115725 69 280 0.0 3.0 0.00 0.00 0.00 77 1014.1
20260906115444 68 323 1.0 3.0 0.00 0.00 0.00 78 1013.9
20260906114720 67 321 1.0 3.0 0.00 0.00 0.00 78 1014.0
20260906114216 67 236 0.0 3.0 0.00 0.00 0.00 79 1014.0
20260906113648 66 285 0.0 3.0 0.00 0.00 0.00 80 1013.9
20260906113148 66 298 0.0 3.0 0.00 0.00 0.00 81 1013.9
20260906112621 65 305 0.0 2.0 0.00 0.00 0.00 82 1013.8
20260906112055 65 343 0.0 2.0 0.00 0.00 0.00 83 1013.7
20260906111819 65 277 0.0 3.0 0.00 0.00 0.00 83 1013.6
20260906111046 65 304 0.0 3.0 0.00 0.00 0.00 83 1013.6
20260906110529 64 253 0.0 1.0 0.00 0.00 0.00 83 1013.5
20260906110016 64 235 0.0 1.0 0.00 0.00 0.00 84 1013.4
20260906105446 64 252 0.0 1.0 0.00 0.00 0.00 84 1013.3
20260906105217 64 257 0.0 3.0 0.00 0.00 0.00 84 1013.1
20260906104422 64 287 0.0 3.0 0.00 0.00 0.00 84 1013.0
20260906104340 63 283 0.0 1.0 0.00 0.00 0.00 85 1012.8
20260906104112 63 283 0.0 1.0 0.00 0.00 0.00 85 1012.9
20260906104103 64 299 0.0 1.0 0.00 0.00 0.00 85 1012.9
20260906102409 63 300 0.0 1.0 0.00 0.00 0.00 85 1012.7
20260906101838 63 285 0.0 0.0 0.00 0.00 0.00 85 1012.7
20260906101337 64 285 0.0 0.0 0.00 0.00 0.00 84 1012.6
20260906101037 64 285 0.0 1.0 0.00 0.00 0.00 84 1012.6
20260906100307 64 285 0.0 1.0 0.00 0.00 0.00 83 1012.6
20260906095805 64 285 0.0 1.0 0.00 0.00 0.00 84 1012.4
20260906095238 64 285 0.0 1.0 0.00 0.00 0.00 84 1012.5
20260906094952 64 330 0.0 1.0 0.00 0.00 0.00 84 1012.4
20260906094212 64 330 0.0 1.0 0.00 0.00 0.00 85 1012.4
20260906093641 64 330 0.0 1.0 0.00 0.00 0.00 84 1012.2
20260906093335 64 330 0.0 1.0 0.00 0.00 0.00 84 1012.3
20260906092611 64 330 0.0 1.0 0.00 0.00 0.00 84 1012.3
20260906092106 64 330 0.0 0.0 0.00 0.00 0.00 84 1012.1
20260906091539 64 330 0.0 0.0 0.00 0.00 0.00 83 1012.1
20260906091230 64 330 0.0 1.0 0.00 0.00 0.00 83 1012.0
20260906090510 65 330 0.0 1.0 0.00 0.00 0.00 83 1012.0
20260906085942 65 330 0.0 1.0 0.00 0.00 0.00 82 1011.9
20260906085440 65 330 0.0 3.0 0.00 0.00 0.00 82 1011.9
20260906084911 65 330 0.0 3.0 0.00 0.00 0.00 82 1011.8
20260906084408 65 283 0.0 1.0 0.00 0.00 0.00 82 1011.8
20260906083910 65 283 0.0 1.0 0.00 0.00 0.00 82 1011.8
20260906083344 65 283 0.0 1.0 0.00 0.00 0.00 82 1011.7
20260906082847 65 273 0.0 0.0 0.00 0.00 0.00 82 1011.7
20260906082548 65 255 0.0 0.0 0.00 0.00 0.00 82 1011.7
20260906082019 65 255 0.0 0.0 0.00 0.00 0.00 82 1011.6
20260906081259 65 255 0.0 0.0 0.00 0.00 0.00 82 1011.6
20260906080739 65 255 0.0 0.0 0.00 0.00 0.00 81 1011.5
20260906080235 65 255 0.0 0.0 0.00 0.00 0.00 81 1011.6
20260906080001 65 255 0.0 0.0 0.00 0.00 0.00 81 1011.6
20260906075221 66 255 0.0 0.0 0.00 0.00 0.00 80 1011.5
20260906074658 66 255 0.0 0.0 0.00 0.00 0.00 80 1011.5
20260906074401 66 328 0.0 2.0 0.00 0.00 0.00 80 1011.5
20260906073621 66 256 0.0 1.0 0.00 0.00 0.00 80 1011.5
20260906073123 66 255 0.0 1.0 0.00 0.00 0.00 79 1011.4
20260906072559 66 292 0.0 1.0 0.00 0.00 0.00 79 1011.4
20260906072039 66 311 0.0 1.0 0.00 0.00 0.00 79 1011.3
20260906071534 66 252 0.0 1.0 0.00 0.00 0.00 79 1011.3
20260906071021 66 250 0.0 1.0 0.00 0.00 0.00 78 1011.3
20260906070458 66 302 0.0 2.0 0.00 0.00 0.00 78 1011.4
20260906065932 66 302 0.0 2.0 0.00 0.00 0.00 79 1011.5
20260906065435 66 309 0.0 2.0 0.00 0.00 0.00 79 1011.3
20260906064910 66 295 0.0 1.0 0.00 0.00 0.00 79 1011.2
20260906064344 66 228 0.0 1.0 0.00 0.00 0.00 78 1011.4
20260906063817 67 334 0.0 1.0 0.00 0.00 0.00 78 1011.4
20260906063256 67 334 0.0 2.0 0.00 0.00 0.00 78 1011.6
20260906062757 67 286 0.0 2.0 0.00 0.00 0.00 78 1011.6
20260906062229 67 270 0.0 1.0 0.00 0.00 0.00 77 1011.6
20260906061705 67 297 0.0 4.0 0.00 0.00 0.00 77 1011.7
20260906061139 67 233 0.0 1.0 0.00 0.00 0.00 78 1011.7
20260906060609 67 306 0.0 1.0 0.00 0.00 0.00 77 1011.7
20260906060336 67 257 0.0 1.0 0.00 0.00 0.00 77 1011.7
20260906055604 67 274 0.0 2.0 0.00 0.00 0.00 77 1011.8
20260906055100 67 256 0.0 2.0 0.00 0.00 0.00 77 1011.7
20260906054819 67 307 0.0 1.0 0.00 0.00 0.00 77 1011.7
20260906054316 67 307 0.0 2.0 0.00 0.00 0.00 77 1011.7
20260906053526 67 302 0.0 2.0 0.00 0.00 0.00 77 1011.7
20260906053025 67 281 0.0 1.0 0.00 0.00 0.00 77 1011.8
20260906052500 67 296 0.0 1.0 0.00 0.00 0.00 77 1011.8
20260906051931 67 296 0.0 1.0 0.00 0.00 0.00 77 1011.8
20260906051430 67 280 0.0 1.0 0.00 0.00 0.00 77 1011.8
20260906051124 67 316 0.0 1.0 0.00 0.00 0.00 77 1011.8
20260906050359 67 300 0.0 2.0 0.00 0.00 0.00 76 1011.8
20260906045858 68 302 0.0 2.0 0.00 0.00 0.00 76 1011.9
20260906045330 68 272 0.0 2.0 0.00 0.00 0.00 76 1012.0
20260906044828 68 307 0.0 2.0 0.00 0.00 0.00 76 1012.0
20260906044259 68 295 0.0 2.0 0.00 0.00 0.00 76 1012.0
20260906043758 67 276 0.0 2.0 0.00 0.00 0.00 76 1012.1
20260906043232 68 307 0.0 1.0 0.00 0.00 0.00 76 1011.8
20260906042931 68 304 0.0 1.0 0.00 0.00 0.00 76 1011.9
20260906042139 68 288 0.0 1.0 0.00 0.00 0.00 76 1012.1
20260906041858 68 288 0.0 2.0 0.00 0.00 0.00 76 1012.1
20260906041109 68 284 0.0 2.0 0.00 0.00 0.00 76 1012.1
20260906040542 67 306 0.0 1.0 0.00 0.00 0.00 76 1012.2
20260906040017 67 301 0.0 1.0 0.00 0.00 0.00 77 1012.3
20260906035447 67 301 0.0 0.0 0.00 0.00 0.00 77 1012.2
20260906035212 67 301 0.0 0.0 0.00 0.00 0.00 78 1012.1
20260906034419 67 301 0.0 0.0 0.00 0.00 0.00 77 1012.0
20260906033854 68 301 0.0 0.0 0.00 0.00 0.00 77 1012.1
20260906033327 68 300 0.0 0.0 0.00 0.00 0.00 77 1012.2
20260906032758 68 301 0.0 0.0 0.00 0.00 0.00 76 1012.2
20260906032256 68 301 0.0 0.0 0.00 0.00 0.00 77 1012.2
20260906031729 68 301 0.0 0.0 0.00 0.00 0.00 77 1012.1
20260906031227 68 301 0.0 0.0 0.00 0.00 0.00 76 1012.1
20260906030659 68 301 0.0 0.0 0.00 0.00 0.00 76 1012.1
20260906030421 68 301 0.0 0.0 0.00 0.00 0.00 76 1012.0
20260906025632 69 301 0.0 0.0 0.00 0.00 0.00 76 1012.0
20260906025329 69 301 0.0 0.0 0.00 0.00 0.00 75 1011.9
20260906024601 69 300 0.0 1.0 0.00 0.00 0.00 75 1011.9
20260906024057 69 301 0.0 1.0 0.00 0.00 0.00 74 1012.0
20260906023557 69 301 0.0 0.0 0.00 0.00 0.00 74 1011.9
20260906023050 69 301 0.0 0.0 0.00 0.00 0.00 73 1011.9
20260906022550 69 301 0.0 0.0 0.00 0.00 0.00 73 1011.9
20260906022050 69 300 0.0 1.0 0.00 0.00 0.00 73 1011.8
20260906021535 69 300 0.0 1.0 0.00 0.00 0.00 73 1011.8
20260906021036 70 301 0.0 1.0 0.00 0.00 0.00 73 1011.8
20260906020730 70 300 0.0 1.0 0.00 0.00 0.00 73 1011.9
20260906015943 70 300 0.0 0.0 0.00 0.00 0.00 73 1011.8
20260906015417 70 300 0.0 0.0 0.00 0.00 0.00 73 1011.8
20260906015111 70 300 0.0 1.0 0.00 0.00 0.00 72 1011.7
20260906014325 70 300 0.0 1.0 0.00 0.00 0.00 73 1011.6
20260906013820 70 301 0.0 1.0 0.00 0.00 0.00 72 1011.7
20260906013317 70 302 0.0 1.0 0.00 0.00 0.00 73 1011.6
20260906012815 69 325 0.0 1.0 0.00 0.00 0.00 73 1011.6
20260906012313 69 299 0.0 0.0 0.00 0.00 0.00 74 1011.6
20260906011744 69 299 0.0 0.0 0.00 0.00 0.00 75 1011.4
20260906011244 69 299 0.0 0.0 0.00 0.00 0.00 75 1011.4
20260906010739 69 323 0.0 0.0 0.00 0.00 0.00 76 1011.4
20260906010240 69 322 0.0 0.0 0.00 0.00 0.00 77 1011.2
20260906005714 69 323 0.0 0.0 0.00 0.00 0.00 79 1011.2
20260906005146 69 323 0.0 0.0 0.00 0.00 0.00 77 1011.2
20260906004912 69 323 0.0 0.0 0.00 0.00 0.00 77 1011.2
20260906004344 69 323 0.0 0.0 0.00 0.00 0.00 77 1011.2
20260906003555 70 323 0.0 0.0 0.00 0.00 0.00 77 1011.2
20260906003042 70 323 0.0 0.0 0.00 0.00 0.00 77 1011.0
20260906003004 70 323 0.0 0.0 0.00 0.00 0.00 77 1011.0
20260906001957 71 323 0.0 0.0 0.00 0.00 0.00 78 1010.9
20260906001432 71 323 0.0 0.0 0.00 0.00 0.00 76 1010.8
20260906000912 71 323 0.0 0.0 0.00 0.00 0.00 75 1010.8
20260906000414 71 323 0.0 0.0 0.00 0.00 0.00 75 1010.7
20260905235854 71 323 0.0 0.0 0.00 0.00 0.00 74 1010.6
20260905235339 71 323 0.0 0.0 0.00 0.00 0.00 75 1010.5
20260905234836 72 323 0.0 0.0 0.00 0.00 0.00 74 1010.4
20260905234340 72 323 0.0 0.0 0.00 0.00 0.00 73 1010.5
20260905234037 72 323 0.0 0.0 0.00 0.00 0.00 72 1010.4
20260905233300 73 323 0.0 0.0 0.00 0.00 0.00 71 1010.1
20260905233025 73 323 0.0 0.0 0.00 0.00 0.00 70 1010.0
20260905232301 74 323 0.0 0.0 0.00 0.00 0.00 69 1009.9
20260905231800 74 323 0.0 0.0 0.00 0.00 0.00 67 1010.0
20260905231240 74 323 0.0 0.0 0.00 0.00 0.00 66 1010.0
20260905230729 75 323 0.0 0.0 0.00 0.00 0.00 66 1010.1
20260905230153 75 323 0.0 0.0 0.00 0.00 0.00 65 1010.1
20260905225650 76 323 0.0 0.0 0.00 0.00 0.00 64 1010.1
20260905225152 76 323 0.0 0.0 0.00 0.00 0.00 64 1010.3
20260905224645 76 323 0.0 0.0 0.00 0.00 0.00 62 1010.1
20260905224636 77 323 0.0 0.0 0.00 0.00 0.00 62 1010.1
20260905223638 77 323 0.0 0.0 0.00 0.00 0.00 63 1010.3
20260905223137 77 323 0.0 0.0 0.00 0.00 0.00 62 1010.1
20260905222637 78 323 0.0 0.0 0.00 0.00 0.00 62 1010.1
20260905222112 78 323 0.0 1.0 0.00 0.00 0.00 60 1010.0
20260905221547 78 290 0.0 3.0 0.00 0.00 0.00 58 1010.0
20260905221242 78 293 0.0 3.0 0.00 0.00 0.00 57 1009.9
20260905220514 78 277 0.0 4.0 0.00 0.00 0.00 61 1009.8
20260905220011 79 321 0.0 4.0 0.00 0.00 0.00 60 1009.8
20260905215444 79 297 0.0 4.0 0.00 0.00 0.00 59 1009.8
20260905214942 78 162 0.0 1.0 0.00 0.00 0.00 60 1009.8
20260905214422 78 14 0.0 4.0 0.00 0.00 0.00 61 1009.9
20260905213922 78 257 0.0 4.0 0.00 0.00 0.00 63 1009.8
20260905213644 78 283 0.0 2.0 0.00 0.00 0.00 64 1009.8
20260905212919 78 309 0.0 2.0 0.00 0.00 0.00 63 1009.8
20260905212422 78 299 0.0 1.0 0.00 0.00 0.00 64 1009.8
20260905211853 78 299 0.0 2.0 0.00 0.00 0.00 62 1009.8
20260905211615 78 328 0.0 1.0 0.00 0.00 0.00 62 1009.8
20260905210824 78 352 0.0 6.0 0.00 0.00 0.00 61 1009.7
20260905210322 79 352 1.0 6.0 0.00 0.00 0.00 59 1009.7
20260905205808 80 318 1.0 6.0 0.00 0.00 0.00 57 1009.7
20260905205227 80 341 1.0 6.0 0.00 0.00 0.00 54 1009.6
20260905204726 80 300 1.0 7.0 0.00 0.00 0.00 55 1009.5
20260905204158 80 278 1.0 8.0 0.00 0.00 0.00 57 1009.5
20260905203656 80 305 1.0 8.0 0.00 0.00 0.00 53 1009.5
20260905203128 80 293 1.0 4.0 0.00 0.00 0.00 54 1009.5
20260905202625 81 241 1.0 8.0 0.00 0.00 0.00 55 1009.5
20260905202126 81 261 1.0 8.0 0.00 0.00 0.00 53 1009.6
20260905201557 81 252 1.0 7.0 0.00 0.00 0.00 54 1009.6
20260905201057 81 283 1.0 7.0 0.00 0.00 0.00 53 1009.6
20260905200548 80 317 1.0 5.0 0.00 0.00 0.00 54 1009.7
20260905200057 80 317 1.0 4.0 0.00 0.00 0.00 54 1009.6
20260905195804 81 314 1.0 4.0 0.00 0.00 0.00 54 1009.7
20260905195041 82 282 1.0 4.0 0.00 0.00 0.00 52 1009.8
20260905194516 82 309 2.0 6.0 0.00 0.00 0.00 52 1009.8
20260905193947 82 308 1.0 6.0 0.00 0.00 0.00 52 1009.8
20260905193443 82 283 1.0 10.0 0.00 0.00 0.00 54 1009.9
20260905192917 81 335 2.0 10.0 0.00 0.00 0.00 53 1009.9
20260905192409 81 264 1.0 6.0 0.00 0.00 0.00 55 1009.9
20260905191906 81 344 1.0 6.0 0.00 0.00 0.00 54 1010.0
20260905191607 81 306 1.0 4.0 0.00 0.00 0.00 55 1010.1
20260905190813 81 306 1.0 4.0 0.00 0.00 0.00 58 1010.3
20260905190312 81 332 1.0 4.0 0.00 0.00 0.00 60 1010.3
20260905190009 81 359 1.0 4.0 0.00 0.00 0.00 55 1010.1
20260905185220 82 298 1.0 7.0 0.00 0.00 0.00 54 1010.3
20260905184651 82 112 1.0 7.0 0.00 0.00 0.00 55 1010.4
20260905184149 81 307 2.0 10.0 0.00 0.00 0.00 56 1010.5
20260905183645 81 275 1.0 10.0 0.00 0.00 0.00 54 1010.4
20260905183120 81 271 1.0 7.0 0.00 0.00 0.00 56 1010.4
20260905182606 81 11 2.0 7.0 0.00 0.00 0.00 54 1010.3
20260905182102 81 304 1.0 5.0 0.00 0.00 0.00 53 1010.4
20260905181537 82 288 1.0 5.0 0.00 0.00 0.00 59 1010.5
20260905180955 81 283 1.0 6.0 0.00 0.00 0.00 53 1010.5
20260905180916 82 304 1.0 6.0 0.00 0.00 0.00 53 1010.5
20260905180131 81 235 1.0 5.0 0.00 0.00 0.00 56 1010.7